• In Germany
  • List of Countries
  • For 7 days
  • Water Temperature
  • Satellite Maps
  • Weather Map
  • Weather Widgets
  • user-avatar
    Login

    Hourly Weather Gomel

    Today, 19 August, Saturday

    Time Temperature Precipitation Wind Pressure Humidity
    00:00 +21°C° 0 mm 2 mps 753 mmHg 60%
    01:00 +21°C° 0 mm 2 mps 753 mmHg 60%
    02:00 +21°C° 0 mm 2 mps 753 mmHg 59%
    03:00 +20°C° 0 mm 2 mps 753 mmHg 59%
    04:00 +21°C° 0 mm 1 mps 753 mmHg 58%
    05:00 +21°C° 0 mm 1 mps 753 mmHg 57%
    06:00 +21°C° 0 mm 2 mps 754 mmHg 55%
    07:00 +24°C° 0 mm 2 mps 754 mmHg 54%
    08:00 +26°C° 0 mm 2 mps 754 mmHg 52%
    09:00 +28°C° 0 mm 2 mps 754 mmHg 47%
    10:00 +30°C° 0 mm 2 mps 754 mmHg 43%
    11:00 +31°C° 0 mm 3 mps 754 mmHg 38%
    12:00 +33°C° 0 mm 3 mps 754 mmHg 34%
    13:00 +34°C° 0 mm 4 mps 754 mmHg 31%
    14:00 +35°C° 0 mm 4 mps 753 mmHg 27%
    15:00 +34°C° 0 mm 4 mps 753 mmHg 31%
    16:00 +33°C° 0 mm 3 mps 753 mmHg 35%
    17:00 +31°C° 0 mm 3 mps 753 mmHg 39%
    18:00 +29°C° 0 mm 3 mps 753 mmHg 40%
    19:00 +28°C° 0 mm 3 mps 753 mmHg 42%
    20:00 +26°C° 0 mm 3 mps 753 mmHg 44%
    21:00 +26°C° 0 mm 3 mps 753 mmHg 45%
    22:00 +25°C° 0 mm 4 mps 753 mmHg 46%
    23:00 +23°C° 0 mm 4 mps 753 mmHg 47%

    Tomorrow, 20 August, Sunday

    Time Temperature Precipitation Wind Pressure Humidity
    00:00 +23°C° 0 mm 4 mps 753 mmHg 47%
    01:00 +23°C° 0 mm 4 mps 753 mmHg 47%
    02:00 +22°C° 0 mm 4 mps 753 mmHg 47%
    03:00 +22°C° 0 mm 4 mps 753 mmHg 48%
    04:00 +22°C° 0 mm 4 mps 753 mmHg 48%
    05:00 +21°C° 0 mm 4 mps 753 mmHg 48%
    06:00 +22°C° 0 mm 4 mps 753 mmHg 49%
    07:00 +23°C° 0 mm 4 mps 753 mmHg 49%
    08:00 +25°C° 0 mm 5 mps 753 mmHg 50%
    09:00 +26°C° 0 mm 5 mps 753 mmHg 46%
    10:00 +28°C° 0 mm 6 mps 753 mmHg 43%
    11:00 +29°C° 0 mm 6 mps 753 mmHg 40%
    12:00 +30°C° 0 mm 6 mps 753 mmHg 37%
    13:00 +32°C° 0 mm 6 mps 753 mmHg 35%
    14:00 +33°C° 0 mm 6 mps 752 mmHg 32%
    15:00 +33°C° 0 mm 5 mps 752 mmHg 35%
    16:00 +32°C° 0 mm 5 mps 752 mmHg 38%
    17:00 +32°C° 0 mm 4 mps 751 mmHg 41%
    18:00 +29°C° 0 mm 4 mps 752 mmHg 44%
    19:00 +27°C° 0 mm 4 mps 752 mmHg 48%
    20:00 +25°C° 0 mm 4 mps 752 mmHg 51%
    21:00 +23°C° 0 mm 4 mps 752 mmHg 53%
    22:00 +23°C° 0 mm 4 mps 752 mmHg 55%
    23:00 +22°C° 0 mm 4 mps 752 mmHg 57%

    Day after tomorrow, 21 August, Monday

    Time Temperature Precipitation Wind Pressure Humidity
    00:00 +21°C° 0 mm 4 mps 751 mmHg 59%
    01:00 +21°C° 0 mm 3 mps 751 mmHg 61%
    02:00 +20°C° 0 mm 3 mps 751 mmHg 64%
    03:00 +19°C° 0 mm 3 mps 751 mmHg 66%
    04:00 +19°C° 0 mm 3 mps 750 mmHg 68%
    05:00 +18°C° 0 mm 3 mps 750 mmHg 70%
    06:00 +20°C° 0 mm 3 mps 750 mmHg 67%
    07:00 +21°C° 0 mm 3 mps 750 mmHg 64%
    08:00 +24°C° 0 mm 3 mps 750 mmHg 60%
    09:00 +26°C° 0 mm 3 mps 750 mmHg 55%
    10:00 +28°C° 0 mm 3 mps 749 mmHg 50%
    11:00 +30°C° 0 mm 3 mps 749 mmHg 45%
    12:00 +31°C° 0 mm 3 mps 749 mmHg 41%
    13:00 +33°C° 0 mm 4 mps 749 mmHg 37%
    14:00 +34°C° 0 mm 4 mps 748 mmHg 33%
    15:00 +32°C° 0 mm 4 mps 748 mmHg 38%
    16:00 +30°C° 0 mm 3 mps 748 mmHg 42%
    17:00 +29°C° 0 mm 3 mps 747 mmHg 46%
    18:00 +27°C° 0 mm 3 mps 747 mmHg 51%
    19:00 +26°C° 0 mm 4 mps 748 mmHg 56%
    20:00 +23°C° 0 mm 4 mps 748 mmHg 61%
    21:00 +22°C° 0.3 mm 4 mps 747 mmHg 66%
    22:00 +21°C° 0.3 mm 4 mps 747 mmHg 70%
    23:00 +20°C° 0.3 mm 4 mps 747 mmHg 75%

    22 August, Tuesday

    Time Temperature Precipitation Wind Pressure Humidity
    00:00 +20°C° 0.3 mm 4 mps 747 mmHg 78%
    01:00 +19°C° 0.3 mm 4 mps 746 mmHg 81%
    02:00 +19°C° 0.3 mm 3 mps 746 mmHg 83%
    03:00 +18°C° 0.5 mm 3 mps 746 mmHg 84%
    04:00 +18°C° 0.5 mm 3 mps 746 mmHg 85%
    05:00 +18°C° 0.5 mm 3 mps 745 mmHg 86%
    06:00 +19°C° 0.5 mm 3 mps 745 mmHg 83%
    07:00 +19°C° 0.5 mm 2 mps 745 mmHg 81%
    08:00 +20°C° 0.5 mm 2 mps 745 mmHg 78%
    09:00 +20°C° 0.5 mm 2 mps 745 mmHg 77%
    10:00 +21°C° 0.5 mm 2 mps 745 mmHg 76%
    11:00 +21°C° 0.5 mm 3 mps 745 mmHg 74%
    12:00 +20°C° 1.1 mm 3 mps 745 mmHg 79%
    13:00 +20°C° 1.1 mm 3 mps 744 mmHg 83%
    14:00 +19°C° 1.1 mm 3 mps 744 mmHg 88%
    15:00 +19°C° 0.8 mm 3 mps 744 mmHg 89%
    16:00 +18°C° 0.8 mm 3 mps 744 mmHg 90%
    17:00 +18°C° 0.8 mm 3 mps 744 mmHg 90%
    18:00 +18°C° 0.5 mm 3 mps 744 mmHg 92%
    19:00 +17°C° 0.5 mm 3 mps 743 mmHg 93%
    20:00 +17°C° 0.5 mm 2 mps 743 mmHg 95%
    21:00 +17°C° 0.1 mm 2 mps 743 mmHg 95%
    22:00 +17°C° 0.1 mm 2 mps 743 mmHg 95%
    23:00 +17°C° 0.1 mm 2 mps 743 mmHg 96%

    23 August, Wednesday

    Time Temperature Precipitation Wind Pressure Humidity
    00:00 +17°C° 0 mm 2 mps 742 mmHg 96%
    01:00 +17°C° 0 mm 2 mps 742 mmHg 97%
    02:00 +17°C° 0 mm 2 mps 742 mmHg 97%
    03:00 +18°C° 0 mm 1 mps 742 mmHg 97%
    04:00 +16°C° 0 mm 1 mps 742 mmHg 97%
    05:00 +16°C° 0 mm 1 mps 741 mmHg 97%
    06:00 +18°C° 0 mm 1 mps 741 mmHg 95%
    07:00 +19°C° 0 mm 1 mps 741 mmHg 92%
    08:00 +19°C° 0 mm 1 mps 741 mmHg 90%
    09:00 +20°C° 0.1 mm 1 mps 741 mmHg 86%
    10:00 +21°C° 0.1 mm 1 mps 741 mmHg 83%
    11:00 +21°C° 0.1 mm 1 mps 741 mmHg 80%
    12:00 +20°C° 1.8 mm 2 mps 741 mmHg 81%
    13:00 +20°C° 1.8 mm 2 mps 741 mmHg 81%
    14:00 +20°C° 1.8 mm 3 mps 741 mmHg 82%
    15:00 +20°C° 1.4 mm 3 mps 740 mmHg 82%
    16:00 +20°C° 1.4 mm 3 mps 740 mmHg 82%
    17:00 +20°C° 1.4 mm 4 mps 740 mmHg 82%
    18:00 +18°C° 0.9 mm 4 mps 740 mmHg 86%
    19:00 +17°C° 0.9 mm 4 mps 741 mmHg 90%
    20:00 +15°C° 0.9 mm 4 mps 741 mmHg 94%
    21:00 +15°C° 0.8 mm 5 mps 741 mmHg 94%
    22:00 +14°C° 0.8 mm 5 mps 741 mmHg 93%
    23:00 +14°C° 0.8 mm 6 mps 741 mmHg 93%

    24 August, Thursday

    Time Temperature Precipitation Wind Pressure Humidity
    00:00 +13°C° 0.6 mm 6 mps 741 mmHg 92%
    01:00 +13°C° 0.6 mm 6 mps 741 mmHg 92%
    02:00 +13°C° 0.6 mm 6 mps 742 mmHg 92%
    03:00 +12°C° 0.1 mm 5 mps 742 mmHg 93%
    04:00 +12°C° 0.1 mm 5 mps 742 mmHg 93%
    05:00 +12°C° 0.1 mm 5 mps 742 mmHg 94%
    06:00 +13°C° 0 mm 5 mps 743 mmHg 91%
    07:00 +13°C° 0 mm 6 mps 743 mmHg 88%
    08:00 +14°C° 0 mm 6 mps 743 mmHg 85%
    09:00 +15°C° 0 mm 6 mps 744 mmHg 79%
    10:00 +16°C° 0 mm 6 mps 744 mmHg 73%
    11:00 +19°C° 0 mm 6 mps 744 mmHg 67%
    12:00 +18°C° 0.2 mm 7 mps 744 mmHg 65%
    13:00 +18°C° 0.2 mm 7 mps 744 mmHg 63%
    14:00 +20°C° 0.2 mm 7 mps 744 mmHg 61%
    15:00 +18°C° 0.1 mm 7 mps 744 mmHg 64%
    16:00 +17°C° 0.1 mm 6 mps 744 mmHg 67%
    17:00 +16°C° 0.1 mm 6 mps 744 mmHg 69%
    18:00 +15°C° 0 mm 6 mps 744 mmHg 73%
    19:00 +14°C° 0 mm 6 mps 744 mmHg 76%
    20:00 +13°C° 0 mm 5 mps 744 mmHg 80%
    21:00 +13°C° 0.2 mm 5 mps 744 mmHg 83%
    22:00 +13°C° 0.2 mm 6 mps 744 mmHg 86%
    23:00 +11°C° 0.2 mm 6 mps 744 mmHg 90%
    Show more